DLH62Q KGPI-KSEA

Flight info

Callsign DLH62Q
Flight time 1h 1m
Altitude 38000
Route SKOTT2 SKOTT GEG GLASR3
Aircraft A320/M-SDE3FGHIRWY/LB1

Departure

Time 2026-05-06 07:32
Airport Glacier Park International Airport (KGPI)

Arrival

Time 2026-05-06 08:34
Airport Seattle–Tacoma International Airport (KSEA)
Time Latitude Longitude Altitude Speed Heading
2026-05-06 07:19 48.30812 -114.25327 2975 ft 0 kts 124°
2026-05-06 07:24 48.30820 -114.25345 2976 ft 5 kts 125°
2026-05-06 07:24 48.30830 -114.25360 2976 ft 2 kts 126°
2026-05-06 07:24 48.30839 -114.25373 2976 ft 2 kts 151°
2026-05-06 07:24 48.30849 -114.25383 2976 ft 2 kts 187°
2026-05-06 07:25 48.30863 -114.25381 2976 ft 2 kts 210°
2026-05-06 07:25 48.30874 -114.25372 2976 ft 2 kts 210°
2026-05-06 07:25 48.30883 -114.25362 2976 ft 1 kts 208°
2026-05-06 07:25 48.30882 -114.25362 2975 ft 0 kts 208°
2026-05-06 07:28 48.30800 -114.25471 2975 ft 10 kts 263°
2026-05-06 07:29 48.30801 -114.25601 2975 ft 16 kts 220°
2026-05-06 07:29 48.30715 -114.25691 2974 ft 14 kts 214°
2026-05-06 07:29 48.30641 -114.25769 2975 ft 12 kts 214°
2026-05-06 07:29 48.30528 -114.25887 2975 ft 31 kts 214°
2026-05-06 07:30 48.30313 -114.26116 2974 ft 41 kts 215°
2026-05-06 07:30 48.30079 -114.26355 2974 ft 40 kts 215°
2026-05-06 07:30 48.29904 -114.26533 2974 ft 20 kts 214°
2026-05-06 07:30 48.29856 -114.26683 2975 ft 16 kts 296°
2026-05-06 07:31 48.29930 -114.26714 2975 ft 0 kts 32°
2026-05-06 07:31 48.29931 -114.26713 2975 ft 2 kts 32°
2026-05-06 07:31 48.30086 -114.26553 2973 ft 63 kts 35°
2026-05-06 07:31 48.30621 -114.25995 2974 ft 122 kts 34°
2026-05-06 07:32 48.31438 -114.25129 3151 ft 154 kts 36°
2026-05-06 07:32 48.32333 -114.24234 3855 ft 155 kts 25°
2026-05-06 07:32 48.33419 -114.24248 4417 ft 173 kts 333°
2026-05-06 07:32 48.34214 -114.25710 4720 ft 199 kts 285°
2026-05-06 07:33 48.34050 -114.27847 5008 ft 223 kts 240°
2026-05-06 07:33 48.32867 -114.29415 5328 ft 241 kts 199°
2026-05-06 07:33 48.31155 -114.29518 5714 ft 260 kts 160°
2026-05-06 07:33 48.29588 -114.28102 6434 ft 268 kts 137°
2026-05-06 07:34 48.28221 -114.26167 7250 ft 272 kts 133°
2026-05-06 07:34 48.26848 -114.24159 8092 ft 279 kts 133°
2026-05-06 07:34 48.25447 -114.22103 8919 ft 284 kts 132°
2026-05-06 07:34 48.23991 -114.20045 9730 ft 292 kts 136°
2026-05-06 07:35 48.22314 -114.18225 10316 ft 310 kts 150°
2026-05-06 07:35 48.20155 -114.17300 10580 ft 338 kts 172°
2026-05-06 07:35 48.17746 -114.17237 11030 ft 353 kts 182°
2026-05-06 07:35 48.15259 -114.17230 11680 ft 361 kts 178°
2026-05-06 07:36 48.12731 -114.17078 12400 ft 366 kts 178°
2026-05-06 07:36 48.10162 -114.16873 13075 ft 373 kts 178°
2026-05-06 07:36 48.07542 -114.16648 13729 ft 380 kts 178°
2026-05-06 07:36 48.04876 -114.16423 14324 ft 387 kts 178°
2026-05-06 07:37 48.02172 -114.16206 14923 ft 391 kts 179°
2026-05-06 07:37 47.99472 -114.16001 15502 ft 397 kts 179°
2026-05-06 07:37 47.96658 -114.15794 16079 ft 402 kts 179°
2026-05-06 07:37 47.93845 -114.15592 16661 ft 408 kts 179°
2026-05-06 07:38 47.90986 -114.15392 17227 ft 414 kts 179°
2026-05-06 07:38 47.88095 -114.15190 17795 ft 419 kts 179°
2026-05-06 07:38 47.85159 -114.14984 18358 ft 425 kts 179°
2026-05-06 07:38 47.82228 -114.14778 18837 ft 430 kts 179°
2026-05-06 07:39 47.79202 -114.15036 19283 ft 431 kts 195°
2026-05-06 07:39 47.76437 -114.16474 19738 ft 425 kts 214°
2026-05-06 07:39 47.74073 -114.19015 20192 ft 416 kts 233°
2026-05-06 07:39 47.72353 -114.22366 20643 ft 403 kts 251°
2026-05-06 07:40 47.71349 -114.26158 21044 ft 390 kts 267°
2026-05-06 07:40 47.71038 -114.30092 21470 ft 381 kts 278°
2026-05-06 07:40 47.70942 -114.34035 21940 ft 384 kts 278°
2026-05-06 07:40 47.70834 -114.38012 22396 ft 388 kts 278°
2026-05-06 07:41 47.70716 -114.42042 22854 ft 392 kts 278°
2026-05-06 07:41 47.70591 -114.46104 23330 ft 396 kts 278°
2026-05-06 07:41 47.70460 -114.50207 23765 ft 399 kts 278°
2026-05-06 07:41 47.70325 -114.54335 24149 ft 401 kts 278°
2026-05-06 07:42 47.70189 -114.58489 24547 ft 404 kts 278°
2026-05-06 07:42 47.70052 -114.62664 24943 ft 406 kts 278°
2026-05-06 07:42 47.69917 -114.66857 25341 ft 408 kts 278°
2026-05-06 07:42 47.69780 -114.71077 25692 ft 410 kts 278°
2026-05-06 07:43 47.69640 -114.75321 26096 ft 413 kts 278°
2026-05-06 07:43 47.69498 -114.79588 26497 ft 415 kts 278°
2026-05-06 07:43 47.69355 -114.83872 26898 ft 417 kts 278°
2026-05-06 07:43 47.69210 -114.88176 27258 ft 418 kts 278°
2026-05-06 07:44 47.69061 -114.92498 27635 ft 421 kts 278°
2026-05-06 07:44 47.68907 -114.96847 28006 ft 422 kts 277°
2026-05-06 07:44 47.68753 -115.01208 28376 ft 425 kts 278°
2026-05-06 07:44 47.68597 -115.05599 28763 ft 426 kts 277°
2026-05-06 07:45 47.68439 -115.10001 29161 ft 429 kts 277°
2026-05-06 07:45 47.68279 -115.14429 29463 ft 431 kts 277°
2026-05-06 07:45 47.68116 -115.18876 29796 ft 433 kts 277°
2026-05-06 07:45 47.67951 -115.23352 30116 ft 436 kts 277°
2026-05-06 07:46 47.67783 -115.27851 30413 ft 438 kts 277°
2026-05-06 07:46 47.67612 -115.32366 30673 ft 440 kts 277°
2026-05-06 07:46 47.67437 -115.36916 30953 ft 443 kts 277°
2026-05-06 07:46 47.67262 -115.41479 31234 ft 444 kts 277°
2026-05-06 07:47 47.67085 -115.46062 31526 ft 445 kts 277°
2026-05-06 07:47 47.66902 -115.50640 31911 ft 444 kts 277°
2026-05-06 07:47 47.66716 -115.55210 32241 ft 444 kts 277°
2026-05-06 07:47 47.66527 -115.59777 32529 ft 444 kts 277°
2026-05-06 07:48 47.66334 -115.64349 32863 ft 444 kts 277°
2026-05-06 07:48 47.66143 -115.68912 33235 ft 443 kts 277°
2026-05-06 07:48 47.65957 -115.73460 33615 ft 442 kts 277°
2026-05-06 07:48 47.65771 -115.78011 34013 ft 441 kts 278°
2026-05-06 07:49 47.65584 -115.82544 34341 ft 440 kts 277°
2026-05-06 07:49 47.65392 -115.87073 34650 ft 440 kts 277°
2026-05-06 07:49 47.65197 -115.91595 34969 ft 439 kts 277°
2026-05-06 07:49 47.64996 -115.96102 35245 ft 438 kts 277°
2026-05-06 07:50 47.64793 -116.00606 35547 ft 437 kts 277°
2026-05-06 07:50 47.64590 -116.05106 35770 ft 437 kts 277°
2026-05-06 07:50 47.64389 -116.09595 36052 ft 437 kts 277°
2026-05-06 07:50 47.64187 -116.14083 36361 ft 436 kts 277°
2026-05-06 07:51 47.63985 -116.18556 36634 ft 435 kts 277°
2026-05-06 07:51 47.63783 -116.23025 36923 ft 434 kts 277°
2026-05-06 07:51 47.63581 -116.27480 37216 ft 432 kts 277°
2026-05-06 07:51 47.63379 -116.31927 37479 ft 431 kts 277°
2026-05-06 07:52 47.63173 -116.36353 37809 ft 430 kts 277°
2026-05-06 07:52 47.62964 -116.40783 37980 ft 431 kts 277°
2026-05-06 07:52 47.62531 -116.49644 37974 ft 430 kts 276°
2026-05-06 07:53 47.62095 -116.58524 38026 ft 432 kts 276°
2026-05-06 07:53 47.61662 -116.67357 38027 ft 433 kts 276°
2026-05-06 07:54 47.61213 -116.76258 38039 ft 433 kts 276°
2026-05-06 07:54 47.60758 -116.85160 38036 ft 433 kts 276°
2026-05-06 07:55 47.60296 -116.94071 37988 ft 433 kts 276°
2026-05-06 07:55 47.59830 -117.02969 38002 ft 434 kts 276°
2026-05-06 07:56 47.59351 -117.11890 37997 ft 435 kts 275°
2026-05-06 07:56 47.58863 -117.20822 38016 ft 435 kts 275°
2026-05-06 07:57 47.58369 -117.29740 38024 ft 435 kts 275°
2026-05-06 07:57 47.57875 -117.38663 37991 ft 435 kts 275°
2026-05-06 07:58 47.57373 -117.47594 38006 ft 436 kts 275°
2026-05-06 07:58 47.56862 -117.56560 38024 ft 437 kts 275°
2026-05-06 07:59 47.56759 -117.65432 38007 ft 421 kts 288°
2026-05-06 07:59 47.57599 -117.73994 38014 ft 420 kts 288°
2026-05-06 08:00 47.58423 -117.82575 38015 ft 421 kts 288°
2026-05-06 08:00 47.59231 -117.91177 37980 ft 422 kts 287°
2026-05-06 08:01 47.60038 -117.99792 37982 ft 422 kts 287°
2026-05-06 08:01 47.60850 -118.08424 37977 ft 423 kts 287°
2026-05-06 08:02 47.61661 -118.17057 37969 ft 423 kts 287°
2026-05-06 08:02 47.62449 -118.25708 37974 ft 424 kts 287°
2026-05-06 08:03 47.63234 -118.34366 37982 ft 424 kts 287°
2026-05-06 08:03 47.64023 -118.43032 37945 ft 424 kts 287°
2026-05-06 08:04 47.64672 -118.50246 37947 ft 425 kts 287°
2026-05-06 08:04 47.65446 -118.58939 37958 ft 426 kts 287°
2026-05-06 08:05 47.66210 -118.67651 37960 ft 426 kts 286°
2026-05-06 08:05 47.66962 -118.76364 37966 ft 426 kts 286°
2026-05-06 08:06 47.67713 -118.85071 37969 ft 425 kts 286°
2026-05-06 08:06 47.68463 -118.93782 37938 ft 425 kts 286°
2026-05-06 08:07 47.69204 -119.02502 37944 ft 426 kts 286°
2026-05-06 08:07 47.69935 -119.11235 37951 ft 426 kts 286°
2026-05-06 08:08 47.70666 -119.19974 37960 ft 427 kts 286°
2026-05-06 08:08 47.71390 -119.28727 37967 ft 427 kts 285°
2026-05-06 08:09 47.72110 -119.37476 37976 ft 427 kts 285°
2026-05-06 08:09 47.72815 -119.46222 37950 ft 426 kts 285°
2026-05-06 08:10 47.73516 -119.54970 37950 ft 426 kts 285°
2026-05-06 08:10 47.74215 -119.63714 37940 ft 427 kts 285°
2026-05-06 08:11 47.74561 -119.68098 37661 ft 427 kts 285°
2026-05-06 08:11 47.74900 -119.72476 37390 ft 427 kts 284°
2026-05-06 08:11 47.75240 -119.76867 37122 ft 427 kts 284°
2026-05-06 08:11 47.75580 -119.81257 36853 ft 428 kts 284°
2026-05-06 08:12 47.75921 -119.85654 36586 ft 429 kts 284°
2026-05-06 08:12 47.76262 -119.90061 35900 ft 431 kts 284°
2026-05-06 08:12 47.76606 -119.94499 35136 ft 433 kts 284°
2026-05-06 08:12 47.76947 -119.98942 34578 ft 430 kts 283°
2026-05-06 08:13 47.77277 -120.03343 34077 ft 428 kts 283°
2026-05-06 08:13 47.77603 -120.07729 33494 ft 425 kts 283°
2026-05-06 08:13 47.77924 -120.12071 32975 ft 421 kts 283°
2026-05-06 08:13 47.78245 -120.16396 32405 ft 419 kts 283°
2026-05-06 08:14 47.78559 -120.20625 31862 ft 416 kts 283°
2026-05-06 08:14 47.78875 -120.24888 31316 ft 413 kts 283°
2026-05-06 08:14 47.79187 -120.29122 30781 ft 410 kts 283°
2026-05-06 08:14 47.79495 -120.33330 30247 ft 408 kts 282°
2026-05-06 08:15 47.79798 -120.37521 29675 ft 406 kts 282°
2026-05-06 08:15 47.80098 -120.41680 29155 ft 402 kts 282°
2026-05-06 08:15 47.80395 -120.45793 28643 ft 398 kts 282°
2026-05-06 08:15 47.80684 -120.49856 28156 ft 392 kts 282°
2026-05-06 08:16 47.80967 -120.53865 27685 ft 387 kts 283°
2026-05-06 08:16 47.81248 -120.57833 27219 ft 384 kts 283°
2026-05-06 08:16 47.81526 -120.61766 26750 ft 380 kts 283°
2026-05-06 08:16 47.81797 -120.65650 26322 ft 376 kts 283°
2026-05-06 08:17 47.82065 -120.69503 25871 ft 373 kts 283°
2026-05-06 08:17 47.82330 -120.73330 25414 ft 370 kts 283°
2026-05-06 08:17 47.82593 -120.77121 24969 ft 367 kts 283°
2026-05-06 08:17 47.82852 -120.80896 24495 ft 366 kts 283°
2026-05-06 08:18 47.83109 -120.84658 24022 ft 365 kts 283°
2026-05-06 08:18 47.83366 -120.88411 23528 ft 364 kts 283°
2026-05-06 08:18 47.83621 -120.92162 22984 ft 364 kts 283°
2026-05-06 08:18 47.83875 -120.95898 22499 ft 363 kts 283°
2026-05-06 08:19 47.84129 -120.99628 21994 ft 361 kts 283°
2026-05-06 08:19 47.84378 -121.03343 21513 ft 360 kts 282°
2026-05-06 08:19 47.84627 -121.07047 21048 ft 359 kts 282°
2026-05-06 08:19 47.84875 -121.10742 20571 ft 359 kts 282°
2026-05-06 08:20 47.85118 -121.14440 20095 ft 358 kts 282°
2026-05-06 08:20 47.85358 -121.18123 19620 ft 357 kts 282°
2026-05-06 08:20 47.85598 -121.21797 19142 ft 356 kts 282°
2026-05-06 08:20 47.85835 -121.25462 18681 ft 355 kts 281°
2026-05-06 08:21 47.86066 -121.29083 18226 ft 349 kts 281°
2026-05-06 08:21 47.86299 -121.32684 17710 ft 349 kts 281°
2026-05-06 08:21 47.86530 -121.36292 17198 ft 350 kts 281°
2026-05-06 08:21 47.86756 -121.39893 16749 ft 349 kts 280°
2026-05-06 08:22 47.86979 -121.43495 16292 ft 348 kts 280°
2026-05-06 08:22 47.87202 -121.47083 15863 ft 347 kts 279°
2026-05-06 08:22 47.87428 -121.50657 15418 ft 346 kts 279°
2026-05-06 08:22 47.87650 -121.54167 14984 ft 345 kts 279°
2026-05-06 08:23 47.87872 -121.57738 14535 ft 345 kts 279°
2026-05-06 08:23 47.88090 -121.61291 14132 ft 344 kts 278°
2026-05-06 08:23 47.88303 -121.64828 13701 ft 344 kts 277°
2026-05-06 08:23 47.88139 -121.68367 13346 ft 344 kts 260°
2026-05-06 08:24 47.87241 -121.71678 12907 ft 346 kts 240°
2026-05-06 08:24 47.85897 -121.74626 12575 ft 340 kts 241°
2026-05-06 08:24 47.84766 -121.77676 12272 ft 333 kts 244°
2026-05-06 08:24 47.83698 -121.80711 11963 ft 328 kts 245°
2026-05-06 08:25 47.82664 -121.83663 11672 ft 318 kts 245°
2026-05-06 08:25 47.81650 -121.86570 11378 ft 315 kts 245°
2026-05-06 08:25 47.80646 -121.89457 11086 ft 313 kts 245°
2026-05-06 08:25 47.79642 -121.92358 10594 ft 316 kts 245°
2026-05-06 08:26 47.78655 -121.95226 10173 ft 307 kts 244°
2026-05-06 08:26 47.77702 -121.98034 9724 ft 301 kts 245°
2026-05-06 08:26 47.76773 -122.00791 9249 ft 296 kts 245°
2026-05-06 08:26 47.75861 -122.03505 8802 ft 292 kts 245°
2026-05-06 08:27 47.74959 -122.06203 8351 ft 290 kts 245°
2026-05-06 08:27 47.74060 -122.08880 7909 ft 289 kts 245°
2026-05-06 08:27 47.73169 -122.11544 7467 ft 288 kts 245°
2026-05-06 08:27 47.72280 -122.14213 7026 ft 288 kts 245°
2026-05-06 08:28 47.71390 -122.16874 6601 ft 286 kts 245°
2026-05-06 08:28 47.70511 -122.19501 6158 ft 283 kts 245°
2026-05-06 08:28 47.69648 -122.22097 5699 ft 278 kts 245°
2026-05-06 08:28 47.68793 -122.24642 5262 ft 273 kts 245°
2026-05-06 08:29 47.67948 -122.27144 4818 ft 270 kts 245°
2026-05-06 08:29 47.66908 -122.29444 4360 ft 269 kts 225°
2026-05-06 08:29 47.65387 -122.30999 3921 ft 264 kts 203°
2026-05-06 08:29 47.63669 -122.31618 3789 ft 246 kts 183°
2026-05-06 08:30 47.62004 -122.31650 3529 ft 234 kts 180°
2026-05-06 08:30 47.60427 -122.31662 3238 ft 224 kts 181°
2026-05-06 08:30 47.58914 -122.31674 2947 ft 206 kts 181°
2026-05-06 08:30 47.57563 -122.31686 2707 ft 187 kts 182°
2026-05-06 08:31 47.56333 -122.31696 2465 ft 167 kts 182°
2026-05-06 08:31 47.55225 -122.31706 2227 ft 152 kts 181°
2026-05-06 08:31 47.54193 -122.31716 2035 ft 145 kts 181°
2026-05-06 08:31 47.53200 -122.31725 1828 ft 141 kts 181°
2026-05-06 08:32 47.52216 -122.31734 1634 ft 142 kts 181°
2026-05-06 08:32 47.51219 -122.31741 1434 ft 141 kts 181°
2026-05-06 08:32 47.50240 -122.31755 1250 ft 142 kts 180°
2026-05-06 08:32 47.49263 -122.31765 1040 ft 143 kts 181°
2026-05-06 08:33 47.48265 -122.31775 836 ft 145 kts 181°
2026-05-06 08:33 47.47258 -122.31786 651 ft 144 kts 183°
2026-05-06 08:33 47.46250 -122.31794 422 ft 145 kts 182°
2026-05-06 08:33 47.45362 -122.31802 394 ft 93 kts 180°
2026-05-06 08:34 47.44930 -122.31762 392 ft 48 kts 162°
2026-05-06 08:34 47.44652 -122.31231 394 ft 33 kts 97°
2026-05-06 08:34 47.44507 -122.30982 394 ft 33 kts 149°
2026-05-06 08:35 47.44350 -122.30756 394 ft 32 kts 98°
2026-05-06 08:35 47.44364 -122.30618 394 ft 5 kts
2026-05-06 08:35 47.44387 -122.30575 394 ft 13 kts 46°
2026-05-06 08:35 47.44487 -122.30534 394 ft 14 kts 25°
2026-05-06 08:36 47.44502 -122.30495 394 ft 1 kts 117°
2026-05-06 08:36 47.44487 -122.30471 394 ft 0 kts 130°